User: anonymous   Login
Location: Bakov nad Jizerou
(50.4784°N, 14.9394°E)
Time: 08:25:23
(UTC+00:00)
Language:

RESURS 01 DEB - Orbit

View from above orbital plane
View from above orbital plane
View from above satellite
View from above satellite

Ground track
Ground track

The orbit data is extracted from the following two-line orbital elements,

1 46881U 94074BM  22028.35608755  .00012443  00000-0  14935-2 0  9992
2 46881  97.9014  80.1320 0007843 144.9861 215.1870 14.84131777 66760
Epoch (UTC): 28 January 2022 08:32:45
Eccentricity: 0.0007843
inclination: 97.9014°
perigee height: 611 km
apogee height: 622 km
right ascension of ascending node: 80.1320°
argument of perigee: 144.9861°
revolutions per day: 14.84131777
mean anomaly at epoch: 215.1870°
orbit number at epoch: 6676

The dashed part of the orbit path shows where the satellite is in the earth's shadow,  

DLR